Location: Unspecified
(28.1530°N, 80.6520°W)
Time: 22:22:23
(UTC+01:00)

Hubble Space Telescope - Visible Passes

Search period start: 20 February 2018 00:00
Search period end: 02 March 2018 00:00
Orbit: 537 x 541 km, 28.5° (Epoch: 19 February)

Date Brightness Start Highest point End Pass type
(mag) Time Alt. Az. Time Alt. Az. Time Alt. Az.
20 Feb 0.9 11:41:50 31° WSW 11:43:39 65° SSE 11:47:46 10° E visible
21 Feb 0.8 11:32:15 45° WSW 11:33:24 75° S 11:37:32 10° E visible
22 Feb 0.6 11:22:37 67° WSW 11:23:08 83° S 11:27:17 10° E visible
23 Feb 0.6 11:12:56 88° E 11:12:56 88° E 11:17:02 10° E visible
24 Feb 1.1 11:03:15 64° E 11:03:15 64° E 11:06:48 10° E visible
25 Feb 1.7 10:53:32 47° E 10:53:32 47° E 10:56:33 10° E visible
26 Feb 2.3 10:43:51 35° E 10:43:51 35° E 10:46:18 10° E visible
26 Feb 1.1 12:19:17 10° W 12:23:21 59° SSW 12:27:25 10° ESE visible
27 Feb 2.8 10:34:10 26° E 10:34:10 26° E 10:36:03 10° E visible
27 Feb 1.2 12:09:32 13° W 12:13:04 49° SSW 12:17:03 10° ESE visible
28 Feb 3.3 10:24:32 19° E 10:24:32 19° E 10:25:48 10° E visible
28 Feb 1.5 11:59:54 16° W 12:02:46 40° SSW 12:06:38 10° SE visible
01 Mar 3.7 10:14:57 14° ESE 10:14:57 14° ESE 10:15:32 10° ESE visible
01 Mar 1.8 11:50:18 20° WSW 11:52:26 32° SSW 11:56:10 10° SE visible
